STARLINK-1654 (46326 NORAD) Tracking and Keplerian Element Data

This shows tracking and keplerian element data for the satellite.

Feedback or suggestion? Click here.




ElementValue
Catalog46326
NameSTARLINK-1654
Epoch Orbit1382
Epoch Day332.16667824
Epoch Year2020
RAAN34.0828
Inclination53.0015
Eccentricity0.0001307
Argument of Perigee92.618
Mean Anonmoly245.8549
Mean Motion15.05578088
Decay Rate0.00026359
L11 46326U 20062B 20332.16667824 .00026359 00000-0 18216-2 0 9996
L22 46326 53.0015 34.0828 0001307 92.6180 245.8549 15.05578088 13827

Live tracking and technical data element details for STARLINK-1654 (NORAD 46326). STARLINK-1654 can be tracked NOW for your location showing map with azimuth and elevation plus other details from your city location.

Track the satellite on the map from your city or location and see movement details for azimuth, elevation, latitude, longitude, range, height, and movement on the map or in text.







IsCatalogInMostPopularTable: catalog: 46326, numindb: 16
Update: records affected: 1



GetName: 46326 STARLINK-1654

Hit Count: updated at: Fri, 27 Nov 2020 15:00:54 GMT